Погода в Ащебутаке

Россия / Оренбургская область     51°03′04″N   59°06′28″E
темп.,
°C
ветер,
м/с
пор.,
м/с
влажн.,
%
обл.,
%
осадки,
мм/ч
давл.,
гПа
погр.,
м
25 июля, вс
вс2523:00+21ссв346811 0.0 100877
02:00+19ссз35740 0.0 100976
05:00+17ссз33790 0.0 101043
08:00+21сз22630 0.0 1011258
11:00+26зсз443325 0.0 10122124
14:00+28сз662823 0.0 10122913
17:00+27сз873222 0.0 10132180
20:00+24ссв354127 0.0 1014404
26 июля, пн
пн2623:00+20ссв475115 0.0 1016139
02:00+18св35640 0.0 101790
05:00+16ссв35710 0.0 101882
08:00+19св33600 0.0 1019431
11:00+23ссв12440 0.0 10181723
14:00+26сз53295 0.0 10182707
17:00+26ссз552618 0.0 10172764
20:00+24ссв573263 0.0 1017372
27 июля, вт
вт2723:00+21всв363594 0.0 1018189
02:00+17вюв364980 0.0 1018110
05:00+18в004599 0.0 101829
08:00+19вюв333915 0.0 1018351
11:00+23зюз12339 0.0 10171427
14:00+26зсз452714 0.0 10152728
17:00+26сз55252 0.0 10142789
20:00+24с34300 0.0 1014140
28 июля, ср
ср2823:00+19в22360 0.0 101311
02:00+17зюз11438 0.0 101311
05:00+15сз33521 0.0 101232
08:00+19с34421 0.0 1013278
11:00+24сз44302 0.0 10121813
14:00+26ссз6533100 0.0 10112571
17:00+24с453669 0.0 10111613
20:00+23ссв57332 0.0 1011287
29 июля, чт
чт2923:00+18всв611490 0.0 1013269
02:00+15в36600 0.0 1014108
05:00+13всв12660 0.0 101411
08:00+18вюв22470 0.0 1014305
11:00+23ююв01325 0.0 10141265
14:00+25зсз22220 0.0 10132141
17:00+27зсз232139 0.0 10122429
20:00+24зсз2229100 0.0 101123